Weather History for KHYR - February, 2015

Change the Weather History Date:

Tuesday, February 24, 2015

  Actual Average Record
Temperature  
Mean Temperature 10 °F -  
Max Temperature 26 °F 42 °F 48 °F (1998)
Min Temperature -6 °F 25 °F -16 °F (2003)
Degree Days  
Heating Degree Days 54    
Moisture  
Dew Point 5 °F    
Average Humidity 58    
Maximum Humidity 85    
Minimum Humidity 23    
Precipitation  
Precipitation 0.01 in - - ()
Sea Level Pressure  
Sea Level Pressure 29.66 in    
Wind  
Wind Speed 10 mph (West)    
Max Wind Speed 20 mph    
Max Gust Speed 29 mph    
Visibility 7 miles    
Events Fog , Snow    
Averages and records for this station are not official NWS values.
T = Trace of Precipitation, MM = Missing Value Source: NWS Daily Summary

Daily Weather History Graph

Daily Weather History Graph

Search for Another Location

Airport or City:

Trip Planner

Search our weather history database for the weather conditions in past years. The results will help you decide how hot, cold, wet, or windy it might be!

Date:

Astronomy

Feb. 24, 2015 Rise Set
Actual Time 6:53 AM CST 5:44 PM CST
Civil Twilight 6:23 AM CST 6:15 PM CST
Nautical Twilight 5:49 AM CST 6:49 PM CST
Astronomical Twilight 5:14 AM CST 7:24 PM CST
Moon 10:09 AM CST (2/24) No Moon Set
Length of Visible Light 11h 51m
Length of Day
10h 50m
Waxing Crescent, 40% of the Moon is Illuminated
Feb 24
Waxing Crescent
Feb 25
First Quarter
Mar 5
Full
Mar 13
Last Quarter
Mar 20
New

Hourly Weather History & Observations

Time (CST) Temp. Windchill Dew Point Humidity Pressure Visibility Wind Dir Wind Speed Gust Speed Precip Events Conditions
12:53 AM 18.0 °F 1.7 °F 3.9 °F 54% 29.72 in 10.0 mi SSW 19.6 mph - N/A   Overcast
1:53 AM 19.9 °F 6.7 °F 5.0 °F 52% 29.68 in 10.0 mi SSW 13.8 mph - N/A   Overcast
2:53 AM 19.9 °F 8.6 °F 6.1 °F 55% 29.65 in 10.0 mi SSW 10.4 mph - N/A   Overcast
3:53 AM 21.0 °F 10.6 °F 7.0 °F 55% 29.63 in 10.0 mi SW 9.2 mph - N/A   Overcast
4:26 AM 21.0 °F 10.6 °F 8.1 °F 57% 29.53 in 8.0 mi SSW 9.2 mph - 0.00 in Snow Light Snow
4:53 AM 21.9 °F 13.4 °F 9.0 °F 58% 29.60 in 10.0 mi SW 6.9 mph - 0.00 in   Overcast
5:53 AM 23.0 °F 15.8 °F 12.0 °F 63% 29.60 in 10.0 mi WSW 5.8 mph - N/A   Overcast
6:39 AM 23.0 °F 13.9 °F 16.0 °F 74% 29.52 in 2.0 mi WSW 8.1 mph - 0.00 in Snow Light Snow
6:46 AM 24.1 °F 14.4 °F 17.1 °F 75% 29.52 in 1.8 mi WSW 9.2 mph - 0.00 in Snow Light Snow
6:53 AM 24.1 °F 15.2 °F 18.0 °F 77% 29.59 in 2.5 mi WSW 8.1 mph - 0.00 in Snow Light Snow
7:03 AM 24.1 °F 16.0 °F 18.0 °F 77% 29.52 in 3.0 mi WSW 6.9 mph - 0.00 in Snow Light Snow
7:08 AM 24.1 °F 16.0 °F 19.0 °F 81% 29.52 in 1.5 mi WSW 6.9 mph - 0.00 in Snow Light Snow
7:10 AM 24.1 °F 14.4 °F 19.0 °F 81% 29.52 in 0.8 mi WSW 9.2 mph - 0.00 in Snow Light Snow
7:36 AM 25.0 °F 16.3 °F 19.9 °F 81% 29.52 in 1.2 mi West 8.1 mph - 0.00 in Snow Light Snow
7:39 AM 25.0 °F 16.3 °F 19.9 °F 81% 29.52 in 3.0 mi West 8.1 mph 16.1 mph 0.00 in Snow Light Snow
7:47 AM 24.8 °F 17.9 °F 19.4 °F 80% 29.53 in 1.5 mi WNW 5.8 mph - 0.00 in Snow Light Snow
7:53 AM 25.0 °F 15.5 °F 21.0 °F 85% 29.60 in 0.2 mi WNW 9.2 mph 17.3 mph 0.01 in Fog , Snow Heavy Snow
7:56 AM 25.0 °F 19.3 °F 21.0 °F 85% 29.53 in 0.2 mi Variable 4.6 mph 17.3 mph 0.00 in Fog , Snow Heavy Snow
8:07 AM 25.0 °F 14.2 °F 18.0 °F 75% 29.54 in 1.8 mi WNW 11.5 mph 25.3 mph 0.00 in Snow Light Snow
8:09 AM 25.0 °F 15.5 °F 17.1 °F 72% 29.54 in 3.0 mi West 9.2 mph 25.3 mph 0.00 in Snow Light Snow
8:53 AM 26.1 °F 15.6 °F 9.0 °F 49% 29.62 in 8.0 mi NW 11.5 mph 24.2 mph 0.00 in   Partly Cloudy
9:53 AM 26.1 °F 16.8 °F 3.9 °F 39% 29.64 in 10.0 mi NNW 9.2 mph 21.9 mph 0.00 in   Clear
10:53 AM 26.1 °F 14.0 °F -2.0 °F 30% 29.65 in 8.0 mi NW 15.0 mph 26.5 mph 0.00 in   Clear
11:53 AM 26.1 °F 15.6 °F -4.0 °F 27% 29.66 in 10.0 mi NW 11.5 mph 21.9 mph 0.00 in   Clear
12:53 PM 26.1 °F 14.0 °F -7.1 °F 23% 29.64 in 10.0 mi WNW 15.0 mph 28.8 mph N/A   Clear
1:53 PM 26.1 °F 16.2 °F -6.0 °F 25% 29.64 in 10.0 mi NW 10.4 mph 25.3 mph N/A   Clear
2:53 PM 24.1 °F 12.0 °F -6.0 °F 27% 29.67 in 10.0 mi WNW 13.8 mph 28.8 mph N/A   Clear
3:53 PM 19.9 °F 7.9 °F -7.1 °F 30% 29.72 in 7.0 mi NNW 11.5 mph 27.6 mph N/A   Clear
4:53 PM 17.1 °F 3.0 °F -6.0 °F 36% 29.76 in 10.0 mi NNW 13.8 mph 21.9 mph N/A   Clear
5:53 PM 12.9 °F -0.2 °F -9.0 °F 37% 29.82 in 10.0 mi NNW 10.4 mph - N/A   Clear
6:53 PM 10.9 °F 2.9 °F -9.0 °F 40% 29.86 in 10.0 mi Variable 4.6 mph - N/A   Clear
7:53 PM 9.0 °F -0.9 °F -9.0 °F 44% 29.88 in 10.0 mi NNW 5.8 mph - N/A   Clear
8:53 PM 6.1 °F - -9.0 °F 50% 29.91 in 10.0 mi Calm Calm - N/A   Clear
9:53 PM -2.0 °F - -11.0 °F 66% 29.93 in 10.0 mi Calm Calm - N/A   Clear
10:53 PM -5.1 °F - -11.9 °F 72% 29.93 in 10.0 mi Calm Calm - N/A   Clear
11:53 PM -6.0 °F - -13.0 °F 72% 29.94 in 10.0 mi Calm Calm - N/A   Clear